Location: Nitra
(0.0000°N, 18.0833°E)
Time: 20:01:36
(UTC+02:00)

A-11 Canister half - Pass Details

Date: 31 March 2023
Orbit: 1526 x 1682 km, 47.3° (Epoch: 08 June)

Event Time Altitude Azimuth Distance (km) Brightness Sun altitude
Rises 10:04:00 0° 190° (S) 4,829 11.5 47.8°
Reaches altitude 10° 10:08:43 10° 171° (S) 3,872 11.3 49.0°
Maximum altitude 10:14:38 17° 133° (SE) 3,357 11.4 50.5°
Drops below altitude 10° 10:20:35 10° 96° (E) 3,924 12.0 52.0°
Sets 10:25:20 0° 78° (ENE) 4,923 12.2 53.1°
